Tracking 31027 objects as of 19-Jul-2025
HD Live streaming from Space Station
objects crossing your sky now

STARLINK-5320

Track STARLINK-5320 now!
10-day predictions
STARLINK-5320 is classified as:


NORAD ID: 55289
Int'l Code: 2023-010W
Perigee: 576.9 km
Apogee: 581.6 km
Inclination: 70.0 °
Period: 96.1 minutes
Semi major axis: 6950 km
RCS: Unknown
Launch date: January 19, 2023
Source: United States (US)
Launch site: AIR FORCE WESTERN TEST RANGE (AFWTR)
Your satellite tracking list
FLOCK 3P 17
Track 1 satellite(s)




NASA's NSSDC Master Catalog

Two Line Element Set (TLE):
1 55289U 23010W   25199.47306614  .00001395  00000-0  12474-3 0  9991
2 55289  69.9987 255.0843 0003370 263.1806  96.8970 14.98320985138184
Source of the keplerian elements: AFSPC